Wind_Speed
8 9 11 13 14 13 12 11 9 10 8 7 12 12 13 15 13 12 13 14 15 12 16 19 19 18 18 18 18 19 21 24 26 23 20 18 20 17 15 9 13 13 9 10 17
4 5 7 8 10 11 11 10 9 7 9 7 11 12 14 12 11 11 11 10 11 6 14 14 14 18 17 16 15 17 23 21 20 19 16 16 16 16 16 13 11 11 13 14 15
3 3 4 4 5 6 8 7 8 7 6 7 12 12 13 12 8 11 12 12 11 8 12 12 13 13 17 16 14 16 21 22 17 18 17 15 14 16 18 16 10 5 11 17 14
4 4 3 3 2 2 4 5 5 6 6 5 11 11 13 11 8 8 11 10 14 13 11 7 17 12 14 16 15 14 17 20 21 17 20 14 13 13 12 11 10 8 13 14 14
5 4 4 3 3 1 1 3 2 4 4 5 8 10 12 9 7 5 8 6 8 8 12 12 19 13 15 13 15 16 13 14 19 20 19 17 12 9 9 9 11 14 12 13 15
7 6 5 4 3 3 2 3 4 3 3 4 5 8 10 9 7 7 5 2 6 6 6 15 15 13 11 11 9 15 16 14 14 17 16 13 12 11 10 13 15 17 13 11 12
8 7 5 4 3 3 4 4 4 5 4 4 4 6 7 8 10 6 6 3 1 2 3 13 4 9 5 7 5 10 15 17 15 15 13 12 12 12 11 12 18 18 14 13 13
9 8 6 5 4 5 5 5 5 5 4 2 4 5 7 6 9 10 8 6 3 1 4 9 6 1 3 6 9 6 11 14 19 19 16 15 15 15 12 13 16 16 17 16 16
11 10 8 7 6 6 5 5 5 4 3 1 1 2 3 3 3 6 10 8 6 4 6 6 2 1 4 12 9 5 9 13 14 17 18 17 16 15 15 13 13 13 15 18 18
13 12 11 10 9 8 7 7 7 6 6 4 4 3 2 1 4 5 7 10 9 9 10 8 6 6 7 5 7 3 5 4 10 13 13 13 14 15 15 13 12 14 15 16 16
15 14 14 13 12 11 11 10 9 8 9 9 8 6 5 5 5 7 9 11 11 13 14 12 11 16 14 10 7 6 5 6 15 9 6 8 11 11 11 12 11 11 14 13 13
15 16 16 16 16 15 15 12 12 11 10 10 11 11 9 8 8 7 7 10 10 13 15 15 19 16 14 11 5 3 10 6 17 10 11 12 12 10 7 8 6 9 12 15 14
14 15 17 18 18 16 14 14 15 15 14 13 13 12 10 11 10 10 12 12 12 10 18 24 19 16 14 11 5 0 11 9 23 15 16 18 15 13 10 5 6 5 8 12 14
12 13 14 15 15 13 14 16 18 16 14 14 13 12 13 11 12 11 13 12 12 10 17 23 18 15 15 15 10 5 4 11 11 11 10 14 14 14 8 8 6 6 8 10 13
12 12 13 13 11 11 10 14 13 14 13 13 12 13 12 11 10 11 13 12 10 13 15 20 22 17 18 17 13 11 7 9 7 7 7 9 8 10 8 3 0 8 9 11 13
14 13 12 11 12 12 12 14 13 13 14 14 11 10 10 10 9 10 11 12 15 13 8 21 19 14 18 17 15 11 7 6 7 9 10 11 10 8 9 8 4 11 8 9 10
16 16 15 14 13 12 13 14 14 15 15 13 12 11 9 10 9 9 10 12 15 11 8 14 12 8 12 18 15 13 6 5 11 10 11 11 8 11 7 9 3 10 9 7 8
19 18 17 16 17 16 15 15 17 17 15 14 13 13 12 11 10 9 11 12 13 12 13 11 13 12 10 12 17 17 15 12 9 7 5 4 6 4 6 10 5 1 3 6 7
25 22 20 18 18 18 17 17 18 18 17 18 16 13 14 14 12 11 8 9 12 12 9 10 14 12 9 11 21 18 14 13 11 11 14 9 5 4 7 4 2 1 7 7 6
29 28 26 24 23 21 19 19 22 22 20 19 18 17 17 17 16 12 10 11 12 14 17 19 16 11 11 13 14 20 17 16 12 15 15 12 10 8 7 3 9 4 10 12 10
32 32 31 31 29 28 23 21 24 24 23 20 20 21 19 18 16 14 13 15 18 18 18 20 18 18 15 14 14 21 25 25 23 17 18 17 15 11 10 6 6 8 11 14 13
37 35 34 33 33 32 29 26 29 28 27 26 24 22 20 17 19 18 19 19 16 17 19 21 21 22 21 20 17 19 26 30 28 24 23 22 17 16 12 13 11 11 11 11 10
39 40 39 37 35 35 35 33 35 34 33 32 31 29 26 23 22 20 20 22 19 20 21 20 22 22 24 25 22 19 17 21 22 23 26 28 24 23 20 15 14 15 15 10 9
35 38 41 40 41 39 37 34 34 40 40 37 35 35 33 29 27 26 23 22 23 24 22 22 23 23 22 19 21 23 21 19 19 21 24 28 29 31 29 21 20 22 20 16 16
33 33 34 37 40 40 38 36 36 41 44 43 41 40 39 36 33 31 29 27 26 27 26 25 26 23 23 25 25 26 25 24 25 25 26 28 30 31 30 26 21 22 23 24 22
32 31 33 34 35 35 37 36 37 37 43 46 47 46 43 42 42 36 35 34 32 33 33 32 28 26 28 30 28 27 26 24 25 27 31 32 31 32 32 31 30 27 28 29 29
28 29 31 33 33 33 32 33 36 36 38 41 44 46 47 44 41 42 44 44 44 41 43 41 36 32 34 35 36 38 35 34 32 29 30 34 38 36 34 35 34 35 36 37 37
Wind_Direction
55 52 49 50 55 62 72 80 102 109 107 101 101 85 74 79 81 95 101 96 84 76 81 79 94 92 85 85 92 103 105 128 134 136 150 135 129 122 120 118 117 113 110 117 123
27 32 37 40 46 51 60 72 82 104 119 119 99 101 92 86 82 83 97 86 65 102 87 101 87 81 77 89 97 100 98 105 132 134 145 132 131 126 121 126 124 122 119 131 124
337 351 0 20 34 45 50 65 78 84 99 104 107 111 107 108 104 93 69 66 53 113 115 93 99 76 77 82 96 111 98 97 99 125 138 137 121 120 124 126 131 124 122 131 121
307 316 316 322 343 28 55 56 73 86 91 93 106 119 117 125 125 101 81 61 84 87 116 121 106 91 81 80 91 93 104 106 103 117 121 134 136 131 122 124 132 140 141 134 127
283 288 293 288 283 259 98 94 90 100 106 103 103 129 130 133 140 125 101 77 79 94 95 92 87 92 74 79 89 91 101 112 119 124 127 135 144 151 152 140 140 146 153 139 133
274 272 269 269 251 220 171 144 149 137 125 99 97 126 139 144 157 140 139 63 103 95 100 96 70 72 69 51 54 102 118 125 122 124 130 143 149 156 161 155 145 154 155 142 134
260 257 254 252 217 186 171 164 165 157 152 125 101 108 128 130 163 173 158 167 325 59 83 113 84 52 35 323 99 108 110 120 135 128 129 136 146 146 150 157 153 156 151 146 143
252 249 240 223 189 175 170 160 169 173 171 154 105 95 147 145 159 183 189 198 213 57 71 85 93 271 295 242 236 151 123 124 128 135 135 129 140 144 146 155 157 155 152 153 147
243 244 233 223 205 197 190 180 184 195 204 195 96 102 135 136 188 191 209 180 205 183 150 142 133 359 280 229 199 165 134 134 125 126 127 130 139 144 143 154 166 164 161 157 155
232 233 235 229 224 220 210 211 210 211 214 213 216 214 227 197 215 231 221 206 184 189 186 167 167 218 219 208 94 134 159 224 132 122 111 118 136 151 152 155 172 184 180 171 161
229 228 228 232 231 230 228 229 230 238 242 241 236 220 253 244 230 225 232 227 185 189 194 179 179 186 204 187 128 139 72 254 189 178 170 128 124 120 138 151 170 194 197 193 179
229 230 229 229 230 233 238 240 243 243 243 248 251 245 233 233 245 245 245 244 217 188 201 157 181 201 214 206 169 155 56 77 125 135 137 125 134 109 103 126 149 190 206 204 199
231 231 230 233 236 237 239 242 243 239 237 240 246 251 256 242 246 236 232 234 237 191 191 174 188 205 230 235 190 56 75 122 127 111 115 120 113 111 101 92 171 192 203 219 215
236 235 235 233 235 233 229 225 234 236 233 241 241 243 245 245 235 236 238 236 245 219 199 186 205 224 221 216 197 226 133 122 139 106 127 129 115 115 100 72 160 203 215 220 219
239 236 236 235 229 224 217 226 224 228 226 234 226 234 236 239 238 230 233 231 231 244 212 197 201 217 209 219 213 216 226 151 156 152 135 155 152 135 102 103 129 193 208 224 227
243 244 241 238 228 219 211 217 215 216 214 226 234 236 233 227 229 234 237 231 234 233 207 215 211 210 216 228 230 246 184 171 205 188 159 152 146 111 74 12 263 207 215 207 220
248 248 245 243 241 230 225 221 219 224 235 245 252 245 230 217 215 217 225 236 247 226 185 190 169 161 220 226 237 222 176 180 160 165 179 188 149 123 75 30 354 185 195 193 186
248 247 247 245 243 239 233 233 230 233 238 244 242 250 237 212 209 212 215 216 236 222 208 188 171 162 184 206 217 188 184 193 191 189 208 164 149 135 69 3 47 108 209 211 203
251 251 249 246 244 242 239 237 239 240 239 242 252 255 246 227 216 204 211 215 226 226 216 186 178 182 202 216 212 205 200 194 209 218 227 253 226 208 101 77 47 139 190 179 201
250 250 251 249 246 246 241 235 242 241 237 237 242 249 246 231 220 205 204 207 214 213 205 188 189 183 218 237 227 220 201 199 211 221 233 247 241 229 181 143 177 133 199 214 216
247 248 248 248 248 247 244 234 244 247 245 238 242 243 251 249 225 212 211 214 208 200 203 198 191 188 220 234 232 219 212 212 219 230 241 239 244 238 247 214 184 183 173 198 207
245 245 246 246 247 248 242 226 240 247 247 249 243 241 240 248 233 219 223 232 233 231 216 208 215 214 228 229 225 229 219 227 237 250 236 238 241 245 254 268 247 244 259 241 227
245 244 243 244 245 244 241 233 237 246 245 248 251 246 242 236 240 239 229 233 227 229 225 226 223 214 227 230 229 227 242 243 246 245 243 247 252 250 256 260 262 265 262 266 277
245 246 244 243 243 243 242 240 233 233 242 249 248 251 250 247 247 247 245 241 237 232 235 232 232 232 235 258 253 254 252 247 246 257 254 251 253 256 258 256 253 264 266 256 260
244 245 245 243 243 243 242 240 236 229 235 244 247 244 247 249 249 251 252 255 260 265 253 243 246 251 243 247 251 261 263 261 262 253 251 253 256 260 260 262 261 257 255 255 255
247 244 244 243 243 242 240 240 240 236 232 235 243 248 247 245 247 249 251 249 253 255 258 264 259 255 255 258 262 262 256 258 262 263 266 264 255 261 265 267 264 259 255 266 269
251 246 244 244 244 244 242 242 242 241 240 237 238 244 250 251 251 250 251 253 256 256 250 249 252 251 251 253 257 262 267 271 268 263 257 252 262 260 258 262 266 272 273 271 272
Height
5895 5896 5896 5896 5896 5896 5895 5895 5895 5896 5896 5896 5900 5899 5899 5900 5899 5899 5900 5901 5900 5898 5899 5899 5899 5899 5899 5898 5898 5897 5897 5897 5898 5900 5902 5903 5905 5907 5908 5910 5911 5914 5917 5917 5917
5897 5897 5898 5898 5898 5898 5898 5897 5897 5897 5898 5897 5900 5901 5902 5901 5901 5901 5904 5904 5905 5902 5902 5903 5903 5902 5901 5901 5901 5900 5899 5900 5901 5901 5904 5907 5908 5907 5910 5912 5913 5914 5916 5919 5920
5898 5898 5898 5899 5899 5900 5899 5899 5899 5898 5899 5899 5901 5902 5903 5903 5902 5903 5905 5906 5906 5905 5905 5906 5905 5905 5905 5904 5904 5904 5903 5902 5903 5903 5905 5909 5911 5911 5913 5914 5915 5915 5917 5919 5921
5897 5898 5898 5899 5900 5901 5901 5900 5900 5899 5900 5900 5902 5903 5904 5904 5904 5904 5906 5906 5909 5908 5909 5909 5909 5909 5909 5908 5907 5907 5905 5904 5904 5907 5907 5911 5913 5914 5916 5918 5916 5916 5920 5921 5922
5897 5898 5898 5899 5900 5901 5901 5902 5901 5901 5901 5901 5902 5903 5904 5905 5904 5904 5906 5907 5908 5910 5911 5912 5909 5910 5911 5911 5911 5910 5909 5909 5908 5907 5908 5912 5915 5916 5917 5919 5919 5919 5921 5923 5924
5896 5897 5898 5899 5899 5900 5901 5902 5902 5901 5902 5902 5902 5904 5905 5906 5904 5905 5907 5908 5909 5911 5912 5911 5911 5909 5911 5913 5915 5913 5913 5913 5912 5912 5912 5914 5915 5917 5918 5919 5920 5922 5923 5924 5925
5896 5896 5897 5898 5898 5899 5901 5901 5902 5902 5903 5904 5903 5904 5905 5908 5906 5906 5907 5907 5908 5911 5912 5911 5911 5910 5913 5915 5917 5916 5914 5914 5913 5913 5915 5915 5918 5918 5920 5921 5922 5924 5925 5927 5927
5894 5895 5896 5897 5898 5899 5900 5901 5902 5902 5903 5904 5905 5905 5905 5906 5908 5907 5907 5906 5907 5909 5909 5909 5911 5913 5916 5916 5915 5915 5915 5915 5915 5915 5916 5917 5918 5919 5921 5923 5924 5925 5927 5928 5929
5893 5893 5894 5896 5897 5899 5900 5901 5901 5902 5903 5904 5905 5906 5906 5906 5906 5908 5908 5909 5909 5910 5912 5913 5915 5916 5917 5915 5914 5915 5915 5916 5917 5916 5916 5917 5918 5919 5920 5924 5926 5926 5927 5929 5930
5891 5892 5893 5894 5896 5897 5898 5899 5900 5901 5902 5903 5904 5906 5907 5907 5907 5907 5906 5907 5910 5911 5913 5914 5916 5917 5916 5917 5917 5916 5916 5917 5918 5919 5917 5918 5919 5920 5920 5922 5925 5927 5927 5928 5929
5889 5890 5891 5893 5894 5896 5897 5898 5901 5902 5901 5903 5904 5904 5906 5907 5906 5906 5906 5906 5909 5911 5913 5914 5916 5917 5915 5917 5916 5916 5915 5914 5914 5917 5918 5918 5919 5920 5921 5921 5925 5928 5929 5929 5929
5887 5888 5889 5891 5892 5893 5895 5897 5898 5899 5899 5900 5901 5902 5902 5904 5905 5906 5907 5909 5909 5910 5911 5913 5915 5916 5916 5917 5916 5915 5914 5913 5915 5917 5919 5918 5919 5921 5923 5922 5923 5925 5927 5928 5928
5884 5885 5887 5888 5889 5891 5893 5893 5894 5895 5896 5897 5898 5899 5901 5902 5902 5904 5904 5905 5906 5909 5910 5910 5913 5915 5918 5917 5915 5914 5916 5915 5915 5918 5920 5921 5921 5921 5923 5923 5923 5924 5925 5927 5927
5881 5882 5884 5885 5888 5888 5888 5889 5889 5892 5893 5895 5895 5896 5897 5898 5900 5900 5902 5904 5904 5906 5907 5908 5910 5913 5916 5916 5916 5915 5917 5918 5919 5919 5921 5922 5923 5923 5922 5922 5922 5923 5924 5925 5926
5880 5880 5881 5883 5885 5886 5887 5886 5888 5889 5891 5892 5892 5893 5894 5897 5897 5898 5899 5900 5903 5904 5907 5908 5909 5912 5913 5915 5916 5915 5915 5918 5919 5919 5921 5922 5923 5923 5922 5921 5920 5921 5922 5923 5925
5877 5878 5880 5881 5882 5884 5884 5885 5886 5888 5888 5889 5890 5892 5893 5894 5894 5895 5897 5899 5900 5901 5904 5906 5909 5911 5912 5913 5915 5916 5915 5916 5918 5919 5921 5921 5922 5923 5921 5921 5918 5918 5921 5922 5923
5874 5876 5877 5879 5880 5882 5882 5884 5886 5885 5887 5889 5889 5890 5891 5891 5892 5893 5895 5897 5898 5901 5902 5905 5907 5907 5910 5911 5912 5915 5915 5916 5918 5919 5920 5921 5923 5923 5922 5920 5918 5917 5920 5921 5922
5871 5873 5874 5876 5877 5879 5880 5882 5882 5884 5885 5886 5888 5889 5890 5890 5891 5891 5893 5894 5897 5899 5900 5903 5906 5907 5909 5910 5911 5912 5913 5915 5917 5918 5919 5920 5923 5924 5922 5922 5919 5919 5921 5922 5922
5867 5868 5870 5872 5873 5874 5877 5878 5879 5881 5883 5884 5885 5887 5888 5889 5890 5889 5891 5892 5893 5896 5900 5902 5905 5907 5907 5908 5909 5911 5913 5915 5916 5917 5918 5920 5922 5923 5923 5923 5921 5920 5921 5922 5923
5860 5863 5865 5867 5869 5871 5873 5875 5875 5878 5880 5882 5883 5885 5885 5886 5888 5889 5891 5893 5893 5895 5896 5899 5902 5905 5905 5906 5907 5910 5912 5913 5914 5915 5916 5918 5920 5922 5923 5923 5923 5922 5922 5923 5924
5853 5856 5859 5861 5863 5866 5869 5872 5872 5873 5875 5879 5880 5881 5883 5885 5887 5888 5890 5892 5892 5893 5896 5897 5899 5904 5904 5904 5905 5907 5908 5909 5911 5913 5913 5915 5917 5920 5921 5924 5925 5924 5925 5925 5925
5846 5849 5851 5853 5857 5860 5863 5866 5867 5867 5870 5872 5875 5878 5880 5882 5884 5886 5887 5889 5891 5893 5894 5896 5898 5900 5901 5902 5903 5904 5906 5907 5908 5911 5911 5911 5915 5916 5918 5920 5922 5923 5922 5923 5923
5837 5840 5844 5846 5849 5852 5855 5858 5859 5861 5864 5866 5867 5871 5874 5877 5880 5883 5885 5886 5888 5890 5891 5893 5894 5896 5897 5899 5900 5901 5904 5905 5906 5907 5908 5908 5911 5912 5913 5914 5916 5917 5918 5918 5918
5829 5831 5835 5838 5840 5844 5847 5851 5855 5855 5856 5859 5863 5864 5868 5872 5874 5876 5879 5882 5884 5887 5889 5889 5890 5892 5894 5896 5897 5899 5900 5901 5903 5904 5904 5904 5905 5906 5908 5909 5910 5911 5912 5912 5913
5821 5823 5826 5829 5831 5835 5838 5842 5844 5847 5849 5851 5855 5858 5861 5864 5868 5870 5873 5875 5876 5878 5881 5884 5885 5887 5889 5890 5892 5893 5894 5895 5897 5898 5898 5899 5899 5899 5901 5902 5904 5905 5905 5906 5906
5813 5816 5817 5820 5822 5825 5828 5832 5834 5837 5841 5844 5847 5850 5854 5857 5860 5864 5866 5868 5871 5873 5873 5874 5877 5879 5881 5883 5885 5886 5888 5889 5890 5891 5891 5892 5894 5894 5893 5893 5895 5896 5897 5897 5899
5805 5807 5809 5812 5814 5817 5820 5823 5825 5828 5831 5836 5840 5842 5844 5848 5853 5855 5858 5860 5861 5863 5866 5869 5869 5871 5872 5874 5876 5876 5877 5878 5880 5882 5883 5884 5885 5885 5886 5886 5886 5887 5888 5889 5890